Location: Cardiff
(53.7833°N, 113.6000°W)
Time: 17:37:15
(UTC+00:00)

NOAA 15 - Pass Details

Date: 09 December 2023
Orbit: 796 x 810 km, 98.6° (Epoch: 21 February)

Event Time Altitude Azimuth Distance (km) Brightness Sun altitude
Rises 02:36:17 0° 177° (S) 3,317 7.8 -28.4°
Reaches altitude 10° 02:38:40 10° 181° (S) 2,388 7.0 -28.8°
Maximum altitude 02:43:51 55° 259° (W) 971 5.2 -29.5°
Drops below altitude 10° 02:49:03 10° 337° (NNW) 2,397 7.3 -30.3°
Sets 02:51:27 0° 342° (NNW) 3,330 8.0 -30.7°
